Weather History for Volk, WI

Change the Weather History Date:

Friday, November 16, 2012

  Actual Average Record
Temperature  
Mean Temperature 30 °F -  
Max Temperature 44 °F 40 °F 60 °F (2001)
Min Temperature 17 °F 27 °F 17 °F (1997)
Degree Days  
Heating Degree Days 34    
Moisture  
Dew Point 26 °F    
Average Humidity 91    
Maximum Humidity 100    
Minimum Humidity 57    
Precipitation  
Precipitation 0.00 in - - ()
Sea Level Pressure  
Sea Level Pressure 30.47 in    
Wind  
Wind Speed 5 mph (ESE)    
Max Wind Speed 7 mph    
Max Gust Speed -    
Visibility 5 miles    
Events Fog    
Averages and records for this station are not official NWS values.
T = Trace of Precipitation, MM = Missing Value Source: NWS Daily Summary

Daily Weather History Graph

Daily Weather History Graph

Search for Another Location

Airport:

Trip Planner

Search our weather history database for the weather conditions in past years. The results will help you decide how hot, cold, wet, or windy it might be!

Date:

Astronomy

Nov. 16, 2012 Rise Set
Actual Time 6:57 AM CST 4:33 PM CST
Civil Twilight 6:26 AM CST 5:04 PM CST
Nautical Twilight 5:51 AM CST 5:39 PM CST
Astronomical Twilight 5:17 AM CST 6:13 PM CST
Moon 9:54 AM CST (11/16) 7:31 PM CST (11/16)
Length of Visible Light 10h 38m
Length of Day
9h 35m
Waxing Crescent, 12% of the Moon is Illuminated
Nov 16
Waxing Crescent
Nov 20
First Quarter
Nov 28
Full
Dec 6
Last Quarter
Dec 13
New

Hourly Weather History & Observations

Time (CST) Temp. Windchill Dew Point Humidity Pressure Visibility Wind Dir Wind Speed Gust Speed Precip Events Conditions
12:55 AM 25.5 °F 17.8 °F 23.5 °F 92% 30.42 in 10.0 mi WNW 6.9 mph - N/A   Clear
1:55 AM 26.8 °F 20.2 °F 23.9 °F 89% 30.44 in 10.0 mi West 5.8 mph - N/A   Clear
2:55 AM 25.7 °F 18.0 °F 21.7 °F 85% 30.45 in 10.0 mi West 6.9 mph - N/A   Clear
3:55 AM 24.4 °F 17.5 °F 20.7 °F 86% 30.45 in 10.0 mi West 5.8 mph - N/A   Clear
4:55 AM 23.9 °F 18.0 °F 19.9 °F 85% 30.47 in 10.0 mi West 4.6 mph - N/A   Clear
5:55 AM 20.3 °F 12.5 °F 16.7 °F 86% 30.48 in 10.0 mi West 5.8 mph - N/A   Clear
6:55 AM 17.6 °F 10.7 °F 15.8 °F 93% 30.49 in 10.0 mi West 4.6 mph - N/A   Clear
7:55 AM 23.0 °F 18.4 °F 19.4 °F 86% 30.51 in 10.0 mi WNW 3.5 mph - N/A   Clear
8:55 AM 32.0 °F - 24.8 °F 75% 30.51 in 10.0 mi Calm Calm - N/A   Clear
9:55 AM 35.6 °F 32.8 °F 28.4 °F 75% 30.52 in 10.0 mi Variable 3.5 mph - N/A   Scattered Clouds
10:55 AM 39.2 °F 35.9 °F 30.2 °F 70% 30.52 in 10.0 mi East 4.6 mph - N/A   Partly Cloudy
11:55 AM 41.0 °F 38.0 °F 30.2 °F 65% 30.50 in 10.0 mi ENE 4.6 mph - N/A   Partly Cloudy
12:55 PM 44.6 °F 41.4 °F 30.2 °F 57% 30.45 in 10.0 mi ESE 5.8 mph - N/A   Partly Cloudy
1:55 PM 44.6 °F 42.2 °F 33.8 °F 66% 30.48 in 10.0 mi Variable 4.6 mph - N/A   Partly Cloudy
2:55 PM 44.6 °F 42.2 °F 33.8 °F 66% 30.47 in 10.0 mi East 4.6 mph - N/A   Partly Cloudy
3:55 PM 42.8 °F 38.6 °F 33.8 °F 70% 30.47 in 10.0 mi East 6.9 mph - N/A   Partly Cloudy
4:55 PM 34.2 °F 29.0 °F 30.0 °F 85% 30.47 in 10.0 mi East 5.8 mph - N/A   Clear
5:55 PM 30.2 °F 26.7 °F 28.4 °F 93% 30.48 in 10.0 mi East 3.5 mph - N/A   Clear
6:55 PM 31.3 °F 27.9 °F 29.8 °F 94% 30.47 in 10.0 mi East 3.5 mph - N/A   Clear
7:55 PM 29.8 °F 24.9 °F 28.6 °F 95% 30.45 in 10.0 mi SE 4.6 mph - N/A   Clear
8:55 PM 33.1 °F 30.0 °F 30.9 °F 92% 30.45 in 10.0 mi ESE 3.5 mph - N/A   Clear
9:55 PM 30.7 °F 24.9 °F 29.5 °F 95% 30.45 in 10.0 mi SE 5.8 mph - N/A   Clear
10:36 PM 30.2 °F - 28.4 °F 93% 30.46 in 2.5 mi Calm Calm - N/A   Clear
10:37 PM 30.2 °F - 28.4 °F 93% 30.46 in 2.0 mi Calm Calm - N/A   Clear
10:38 PM 30.2 °F - 28.4 °F 93% 30.46 in 1.5 mi Calm Calm - N/A   Clear
10:39 PM 30.2 °F - 28.4 °F 93% 30.46 in 1.2 mi Calm Calm - N/A   Clear
10:41 PM 28.4 °F - 28.4 °F 100% 30.46 in 1.0 mi Calm Calm - N/A   Clear
10:45 PM 26.6 °F - 26.6 °F 100% 30.46 in 0.8 mi Calm Calm - N/A   Clear
10:47 PM 26.6 °F 22.6 °F 26.6 °F 100% 30.46 in 1.0 mi East 3.5 mph - N/A   Clear
10:51 PM 26.6 °F 22.6 °F 24.8 °F 93% 30.46 in 0.8 mi ENE 3.5 mph - N/A   Clear
10:55 PM 25.5 °F 21.3 °F 24.6 °F 96% 30.47 in 0.8 mi East 3.5 mph - N/A   Clear
10:57 PM 24.8 °F 20.5 °F 24.8 °F 100% 30.47 in 1.0 mi East 3.5 mph - N/A   Clear
11:01 PM 26.6 °F 21.2 °F 24.8 °F 93% 30.47 in 1.2 mi East 4.6 mph - N/A   Clear
11:02 PM 26.6 °F 21.2 °F 24.8 °F 93% 30.47 in 1.0 mi East 4.6 mph - N/A   Clear
11:04 PM 24.8 °F 19.1 °F 24.8 °F 100% 30.47 in 0.8 mi East 4.6 mph - N/A   Clear
11:09 PM 24.8 °F 17.9 °F 24.8 °F 100% 30.47 in 0.5 mi East 5.8 mph - N/A Fog Light Freezing Fog
11:11 PM 24.8 °F 17.9 °F 24.8 °F 100% 30.47 in 0.8 mi ESE 5.8 mph - N/A   Clear
11:14 PM 24.8 °F 17.9 °F 24.8 °F 100% 30.47 in 1.0 mi ESE 5.8 mph - N/A   Clear
11:15 PM 24.8 °F 16.9 °F 24.8 °F 100% 30.47 in 1.2 mi ESE 6.9 mph - N/A   Clear
11:16 PM 24.8 °F 16.9 °F 24.8 °F 100% 30.47 in 1.8 mi ESE 6.9 mph - N/A   Clear
11:17 PM 24.8 °F 16.9 °F 24.8 °F 100% 30.47 in 2.0 mi ESE 6.9 mph - N/A   Clear
11:18 PM 24.8 °F 17.9 °F 23.0 °F 93% 30.47 in 3.0 mi ESE 5.8 mph - N/A   Clear
11:27 PM 23.0 °F 15.8 °F 23.0 °F 100% 30.47 in 2.5 mi East 5.8 mph - N/A   Clear
11:28 PM 23.0 °F 15.8 °F 23.0 °F 100% 30.47 in 2.0 mi East 5.8 mph - N/A   Clear
11:29 PM 23.0 °F 15.8 °F 23.0 °F 100% 30.47 in 1.8 mi East 5.8 mph - N/A   Clear
11:31 PM 23.0 °F 15.8 °F 23.0 °F 100% 30.47 in 1.5 mi East 5.8 mph - N/A   Clear
11:33 PM 23.0 °F 15.8 °F 23.0 °F 100% 30.46 in 1.2 mi East 5.8 mph - N/A   Clear
11:39 PM 23.0 °F 14.7 °F 23.0 °F 100% 30.47 in 1.5 mi East 6.9 mph - N/A   Clear
11:41 PM 24.8 °F 16.9 °F 23.0 °F 93% 30.47 in 1.8 mi ESE 6.9 mph - N/A   Clear
11:42 PM 24.8 °F 16.9 °F 23.0 °F 93% 30.47 in 2.0 mi ESE 6.9 mph - N/A   Clear
11:44 PM 24.8 °F 17.9 °F 24.8 °F 100% 30.46 in 2.5 mi ESE 5.8 mph - N/A   Clear
11:45 PM 24.8 °F 17.9 °F 24.8 °F 100% 30.46 in 3.0 mi ESE 5.8 mph - N/A   Clear
11:53 PM 26.6 °F 20.0 °F 24.8 °F 93% 30.46 in 2.5 mi SE 5.8 mph - N/A   Clear
11:55 PM 25.7 °F 19.0 °F 24.6 °F 96% 30.47 in 2.0 mi SE 5.8 mph - N/A   Clear